RH
33 33 34 35 36 37 40 42 49 58 57 59 64 66 64 65 66 68 73 74 79 83 83 83 82 85 89 91 90 89 87 87 88 90 91 89 90 89 83 80 75 73 72 70 69 67 66 66 65 64 63 61 60 59 57 54 51 47 44 42 41 40 40 39 39 38 38 38 38 38 38 38 38 38 38 38 37 36 35 33 32 31 31 30 29 29 29 29 29 29 29 30 31 33 34 36 37
35 36 36 36 36 38 41 45 55 65 65 65 68 72 72 70 71 75 79 81 85 87 88 88 85 91 95 93 90 88 88 88 90 92 91 88 89 83 75 73 71 71 70 68 67 66 64 64 64 63 62 60 57 54 50 46 43 42 41 41 41 41 40 40 39 39 39 40 40 40 39 39 38 38 38 38 37 37 36 35 34 33 32 31 30 29 28 28 28 27 27 27 27 27 27 27 28
37 37 37 37 39 40 46 51 58 65 67 69 69 74 76 76 79 82 86 87 88 89 90 89 88 91 91 88 86 87 86 88 88 88 87 85 84 77 71 71 71 70 68 66 66 64 63 62 61 60 56 53 49 45 43 42 42 42 41 41 41 40 40 39 40 40 41 41 40 40 39 39 38 37 37 37 35 35 34 34 32 31 30 29 28 27 26 25 24 24 25 25 26 26 25 25 25
35 37 39 40 42 45 56 63 66 68 69 72 70 74 81 84 86 87 89 89 90 91 90 90 90 90 88 85 87 87 86 86 85 84 83 83 81 75 73 73 71 69 66 65 64 63 62 60 57 54 50 46 44 42 41 42 42 42 42 41 41 41 41 40 41 41 40 39 38 38 38 37 37 35 34 33 31 30 29 28 28 27 26 25 22 21 19 19 17 16 16 16 17 18 20 21 22
36 38 40 41 43 50 62 70 72 71 73 77 74 78 85 88 88 88 90 90 90 92 90 89 90 90 88 86 88 89 86 85 84 83 82 84 82 78 77 76 75 73 69 66 64 61 58 56 53 49 47 45 44 44 44 44 42 42 42 42 42 42 41 40 39 39 38 37 35 34 32 31 31 30 29 28 26 25 23 23 24 25 23 20 19 18 19 19 17 14 11 10 10 10 11 12 14
37 40 42 43 46 52 61 66 71 73 75 78 79 83 88 89 90 90 91 91 91 90 88 86 87 88 87 86 88 89 88 86 86 87 86 87 84 81 80 79 79 74 70 66 63 60 56 53 50 48 47 47 49 49 48 46 44 45 45 44 42 40 38 37 36 36 34 32 28 24 21 20 21 24 25 24 24 24 23 23 23 23 21 20 21 22 23 24 22 20 17 14 17 17 14 13 12
41 45 47 50 54 58 63 66 71 76 76 78 83 86 88 90 90 90 92 91 89 88 87 85 86 86 86 86 87 88 89 88 87 88 88 86 84 81 79 80 78 73 70 68 66 64 63 59 54 52 52 53 52 49 49 48 48 48 46 45 40 38 39 39 38 35 30 25 20 16 12 11 12 16 21 21 21 25 26 25 24 24 23 23 24 24 25 25 25 24 23 23 25 25 23 23 20
45 47 48 53 61 65 68 68 70 74 76 79 84 86 88 90 89 89 91 90 88 89 87 85 85 86 87 86 87 87 87 85 84 85 84 83 82 80 78 79 77 73 70 66 66 64 65 64 59 58 59 58 54 50 50 49 48 47 44 42 41 40 41 38 34 30 26 24 19 15 10 11 14 15 21 21 22 26 25 25 25 26 26 25 25 25 25 25 26 26 25 27 27 26 26 27 26
45 45 45 52 61 67 71 71 71 74 78 81 84 86 87 87 86 87 89 90 90 90 88 85 84 84 85 86 87 86 85 84 83 84 83 84 83 79 78 79 75 69 66 64 66 64 64 66 63 60 59 59 57 55 54 51 47 44 43 41 38 36 35 31 28 25 24 23 21 16 9 17 25 23 25 25 25 26 23 25 27 27 27 27 26 27 26 27 28 27 26 28 27 26 27 28 27
44 44 45 53 62 68 71 73 74 75 80 84 86 88 87 84 83 84 88 90 90 90 89 86 83 83 83 85 86 86 87 85 84 86 84 84 84 79 77 77 72 65 64 67 67 64 61 63 61 58 57 56 54 54 54 50 45 43 40 35 30 28 27 26 25 23 22 21 20 17 9 17 28 26 27 26 25 24 24 27 26 26 27 28 28 27 27 28 29 28 28 28 27 26 26 27 27
46 47 50 60 67 69 69 75 76 76 82 85 86 87 86 83 81 82 86 89 90 89 89 87 84 84 83 83 86 88 88 87 88 87 83 83 81 78 76 73 68 64 63 63 64 61 59 59 58 55 52 49 46 46 47 44 41 38 31 26 23 23 23 23 22 21 21 20 20 17 10 17 26 26 26 25 24 24 25 28 27 27 28 29 29 28 26 27 29 28 28 27 27 27 26 25 26
49 53 58 67 69 69 70 75 77 78 83 85 85 84 84 83 81 82 84 87 89 88 88 87 84 83 84 85 87 89 87 87 88 84 81 81 77 73 72 68 66 65 62 60 60 59 57 55 53 49 45 43 41 39 38 36 34 30 25 22 22 21 22 21 21 20 20 19 18 15 11 15 22 25 27 26 26 25 23 25 26 27 28 29 28 27 25 25 26 27 28 27 25 24 23 25 27
51 58 65 69 69 72 73 74 76 80 83 84 83 83 83 83 81 80 81 84 86 87 86 84 83 83 85 86 87 87 84 83 82 79 78 77 73 72 72 71 71 69 64 60 59 55 52 49 44 42 40 39 38 34 32 30 27 25 23 22 22 21 21 21 21 20 19 18 17 15 12 13 17 20 22 24 26 25 23 24 25 26 28 29 27 26 24 22 23 24 26 26 23 20 17 18 21
52 57 65 68 69 72 73 74 78 81 81 81 82 82 82 80 79 77 78 83 84 84 82 80 81 82 84 84 84 84 80 78 78 77 80 78 74 74 72 71 71 67 61 58 55 50 45 42 40 38 36 33 32 30 28 26 25 24 23 23 22 22 21 20 20 19 17 16 15 14 13 12 12 12 13 15 18 21 24 24 25 26 27 28 27 26 23 22 23 22 21 21 21 18 15 13 18
54 56 64 67 69 71 71 74 79 81 79 79 81 81 80 78 76 75 78 84 84 82 80 78 78 78 80 81 82 83 79 78 80 80 80 77 71 70 67 64 62 57 53 49 46 42 39 36 35 34 32 29 28 28 26 25 25 24 23 23 23 22 20 18 18 17 16 15 16 16 14 12 9 8 8 8 10 16 21 23 25 25 26 27 26 24 23 23 22 19 18 19 19 18 18 18 22
55 55 64 65 66 69 69 73 78 80 80 79 79 79 79 76 74 75 78 80 83 81 78 77 74 74 77 79 83 84 80 79 83 81 76 72 69 67 64 59 55 49 45 41 38 35 31 29 25 24 25 26 26 26 25 25 24 24 23 23 23 20 17 17 18 17 16 17 18 17 15 11 8 7 7 7 8 12 17 20 21 21 22 24 24 21 19 18 16 14 14 16 16 17 20 21 23
55 57 64 63 64 66 66 71 74 76 79 78 76 76 76 73 73 74 73 74 78 76 75 75 73 73 77 81 85 83 79 77 79 79 74 71 67 62 58 54 49 44 42 38 34 29 24 20 16 15 18 23 25 25 25 24 24 23 23 23 20 17 18 19 20 19 19 20 18 16 14 10 8 8 8 8 9 10 12 15 16 16 16 17 17 15 14 13 12 12 12 13 14 16 19 20 22
58 63 64 62 65 64 63 68 71 75 79 78 74 74 74 71 70 69 68 70 72 72 74 76 74 75 79 82 82 79 77 76 77 76 71 66 61 55 51 46 43 40 37 32 27 23 19 14 10 10 14 21 24 24 25 24 24 23 22 20 17 18 21 22 22 22 21 19 17 16 14 10 8 9 9 9 9 10 12 13 13 13 12 13 14 15 16 16 16 15 15 15 16 16 17 19 20
61 66 63 63 66 63 63 66 69 75 77 76 72 72 73 70 67 66 67 68 68 71 75 77 77 77 78 78 78 78 77 75 72 67 61 56 52 48 44 40 37 34 29 25 22 20 15 9 7 8 13 19 23 24 24 24 23 22 20 17 18 21 23 24 24 22 20 20 18 15 12 10 9 10 10 10 11 11 11 11 11 12 14 16 19 20 21 20 20 20 21 21 22 22 21 22 22
59 62 64 65 64 64 64 64 66 70 72 72 69 69 71 69 68 69 70 70 70 73 77 77 77 75 74 74 74 75 72 67 61 55 51 47 44 40 36 33 30 27 24 21 18 15 10 7 6 8 13 17 21 23 23 23 22 20 18 18 20 23 25 25 24 21 20 20 17 13 11 10 11 11 12 12 11 10 10 12 15 17 20 22 22 22 22 22 23 24 25 26 27 27 27 27 27
58 62 66 63 62 64 66 65 65 66 68 68 67 68 70 69 69 69 70 72 74 76 77 75 74 73 72 72 71 67 62 56 51 47 44 40 36 33 31 29 25 23 20 16 13 9 6 6 6 8 13 16 18 20 20 20 20 19 19 20 23 25 25 24 23 21 20 20 16 13 12 11 12 12 13 12 11 12 14 18 21 23 24 24 24 24 24 25 26 27 27 28 28 29 28 28 29
59 62 63 61 61 63 64 65 65 65 65 64 66 68 68 68 69 68 71 75 76 77 78 74 73 73 71 68 63 58 53 49 46 41 38 34 32 31 28 24 20 17 14 11 9 7 6 5 6 7 11 16 18 19 19 19 19 20 21 23 25 25 25 24 24 22 22 20 15 13 13 12 13 13 13 13 14 17 20 23 25 25 25 25 25 25 26 26 27 28 28 29 29 28 29 29 29
57 59 59 58 58 60 61 62 64 64 64 65 68 68 65 67 70 70 74 77 76 76 76 71 70 69 65 60 55 52 50 45 40 37 34 33 30 26 22 16 12 11 10 8 7 6 5 4 6 6 9 15 18 20 20 19 19 20 22 24 24 25 26 27 24 23 22 19 14 16 15 14 15 14 14 16 19 21 23 25 25 25 25 25 26 26 27 28 29 29 29 28 28 29 30 31 31
54 57 58 58 59 60 61 62 63 64 65 65 66 66 65 68 70 71 74 77 76 75 73 69 65 62 57 54 51 48 44 39 35 34 33 30 27 24 18 11 8 8 7 7 5 5 5 4 6 8 10 13 17 20 19 18 19 21 23 24 25 27 29 27 24 21 20 17 16 18 17 16 16 16 17 20 22 23 24 25 25 25 26 26 27 27 29 30 29 28 28 28 29 29 30 31 32
55 57 58 60 62 62 63 64 65 66 66 64 64 66 68 69 70 71 74 75 73 71 69 64 59 56 54 51 47 43 38 36 34 33 31 28 26 23 15 9 7 6 6 5 5 4 4 5 7 10 13 13 15 17 18 19 21 23 24 26 28 30 29 26 21 19 18 18 19 19 17 17 18 19 21 22 22 22 23 25 25 25 25 26 27 28 29 28 27 27 27 28 30 31 32 32 32
56 57 59 62 64 64 64 64 66 67 66 64 65 68 67 66 67 70 73 71 68 66 61 57 55 54 51 47 42 39 37 35 33 31 29 26 24 19 11 9 7 5 5 5 5 5 5 6 7 11 16 16 15 16 17 20 24 25 27 29 31 30 28 24 20 19 20 20 20 18 17 19 21 22 23 23 22 22 23 25 25 24 25 27 27 27 26 25 26 27 29 31 33 33 33 34 34
58 58 60 63 65 66 66 66 66 67 66 66 67 68 65 63 65 68 69 67 65 62 59 57 55 52 48 44 41 39 37 34 32 30 28 26 22 17 12 9 7 6 5 5 5 5 5 6 8 11 15 17 17 18 20 23 26 27 30 31 31 30 27 24 22 22 22 21 21 19 19 22 23 23 23 23 24 23 24 24 24 24 25 27 26 25 25 25 27 28 31 34 34 34 34 35 35
59 59 61 64 65 67 68 67 67 67 68 68 67 66 65 64 65 66 64 61 60 59 60 58 54 50 46 44 42 39 37 34 32 30 29 27 22 19 17 10 6 6 5 5 5 5 6 7 8 10 14 17 18 21 24 26 27 29 31 31 30 29 28 26 25 25 24 22 21 20 22 25 24 24 23 23 24 24 24 24 24 25 26 26 24 24 27 29 30 30 31 34 36 37 36 38 39
59 59 62 63 64 64 64 64 65 65 67 67 64 64 66 67 65 63 59 57 57 57 58 56 51 48 46 44 42 40 38 35 33 31 30 28 23 21 20 14 8 6 5 6 5 5 6 7 8 9 13 16 19 23 27 28 29 30 31 31 31 30 29 27 25 27 26 23 22 23 26 27 25 24 22 23 24 24 24 24 24 25 25 24 24 27 30 30 30 30 32 36 40 40 42 43 43
59 60 62 62 62 63 61 61 62 62 64 64 62 61 63 63 60 56 56 57 57 57 55 53 52 49 47 45 43 41 38 35 34 33 31 29 24 22 22 18 10 7 6 6 5 6 6 7 8 8 11 15 19 24 28 29 29 30 32 32 32 31 29 26 26 28 27 24 24 27 28 27 25 23 23 23 24 25 25 24 25 25 24 24 26 29 29 28 29 32 36 40 41 43 45 45 42
62 62 62 65 65 64 62 62 63 62 61 60 58 57 58 58 55 54 56 58 57 55 53 53 52 49 48 46 45 42 39 37 35 35 34 31 26 23 24 21 15 8 6 6 6 6 7 7 8 9 11 13 18 23 26 28 29 31 32 32 32 31 28 25 26 28 27 25 27 28 28 27 25 25 24 24 25 25 25 25 24 24 24 26 27 28 28 28 30 36 40 42 43 47 46 41 39
65 64 63 66 65 63 62 61 62 61 58 56 55 55 57 56 54 55 57 57 56 54 53 52 51 49 47 47 46 43 41 39 38 37 37 33 27 24 24 22 19 11 6 6 6 6 7 8 8 9 11 13 15 20 24 26 28 30 31 31 31 30 26 24 27 27 24 25 28 29 27 27 26 25 25 25 25 25 25 25 24 24 25 27 28 27 27 29 34 40 43 44 47 48 45 42 42
65 65 64 63 63 62 61 60 58 56 55 56 55 54 56 55 52 55 56 55 54 54 52 50 49 48 46 46 46 45 43 41 40 39 38 34 28 25 25 23 21 16 7 6 6 7 7 8 9 10 11 13 15 18 22 25 27 29 29 30 30 27 25 25 27 24 22 27 31 30 28 26 25 24 24 24 25 26 25 24 23 25 26 27 28 27 28 32 38 43 45 47 49 47 46 46 44
63 64 63 60 61 61 59 58 56 54 56 58 56 54 55 55 53 54 55 55 54 54 51 48 47 47 46 47 47 46 44 42 41 39 38 35 29 26 26 23 23 19 9 5 7 7 8 9 9 10 10 12 15 17 21 23 26 27 28 28 27 25 25 25 24 21 24 31 33 30 27 25 23 23 23 24 25 25 24 23 24 26 26 27 27 26 30 35 40 44 47 52 51 48 50 49 47
62 62 62 60 61 60 58 58 56 54 55 57 57 55 56 55 53 52 53 54 53 52 50 47 45 46 46 47 47 45 44 42 41 39 38 36 30 27 27 24 24 22 12 6 7 7 8 9 9 10 10 11 14 17 20 22 24 26 26 26 24 24 25 24 21 22 30 35 33 28 26 25 26 25 24 24 25 24 23 23 24 25 25 27 25 25 31 37 42 45 51 56 52 52 52 50 51
59 60 61 61 60 59 58 56 54 53 55 58 59 58 57 55 52 51 51 50 48 49 48 46 45 45 45 45 44 43 43 43 41 39 38 36 31 28 27 25 24 23 15 7 8 8 8 10 10 10 11 11 14 16 18 20 21 22 22 22 22 23 24 23 23 27 34 35 31 26 25 26 27 26 24 24 24 23 23 24 24 24 25 26 24 24 29 38 44 47 55 60 57 57 54 51 55
56 56 57 57 58 58 56 54 53 54 55 57 59 58 58 54 51 51 50 49 48 47 47 47 46 45 44 43 41 41 41 40 40 39 38 35 31 29 28 26 24 24 17 8 8 8 9 10 10 11 10 12 13 14 16 17 18 19 20 20 21 22 23 23 25 31 36 35 29 26 26 27 27 25 24 24 23 23 24 23 22 22 24 24 23 21 27 39 46 51 59 63 63 63 56 55 58
58 59 57 55 57 58 57 55 54 54 53 56 58 57 57 55 53 51 49 50 50 48 48 47 46 44 42 40 40 39 39 38 38 37 36 34 31 29 28 26 24 24 17 9 8 8 9 10 11 11 11 12 13 13 14 15 16 18 19 19 19 21 23 24 29 33 37 34 28 26 27 27 26 26 25 24 23 24 24 22 21 23 24 23 21 21 28 40 49 55 64 68 67 65 61 61 62
63 63 60 58 58 58 58 57 55 54 53 54 56 55 55 55 53 51 49 48 46 44 45 44 43 42 41 39 39 39 39 38 36 35 33 32 31 29 28 26 25 24 18 10 8 8 9 10 11 11 11 12 13 13 14 15 16 17 18 18 19 21 23 26 31 35 37 33 27 26 27 27 26 26 25 24 24 25 23 21 21 24 24 21 21 25 32 42 52 61 69 72 68 65 64 66 68
61 63 62 62 60 59 59 57 56 56 53 54 56 55 55 55 51 48 44 43 43 42 41 41 40 40 39 37 37 39 41 39 36 34 32 31 30 29 27 26 25 24 18 11 9 9 8 10 11 11 12 12 13 13 14 15 16 16 17 17 19 21 23 27 31 34 36 32 27 26 26 26 26 26 25 25 25 25 23 20 21 22 22 21 24 31 37 45 56 66 72 73 69 66 65 67 69
61 63 63 62 61 61 60 58 57 57 56 56 58 55 55 54 50 46 42 40 42 41 39 39 38 38 37 36 36 39 43 41 36 33 31 30 29 28 27 25 25 24 19 13 9 8 9 9 10 11 12 12 13 13 14 15 15 16 17 18 19 20 22 27 30 35 37 32 27 26 25 26 26 26 26 25 26 26 22 19 20 21 22 24 28 33 39 47 58 67 70 71 70 69 69 69 68
62 62 63 62 60 61 60 59 59 59 59 56 56 58 56 52 48 45 42 41 41 38 36 35 34 33 33 34 36 41 46 42 35 33 30 29 28 27 26 25 25 24 19 14 9 8 8 9 10 11 12 12 13 14 14 15 15 15 17 17 17 18 22 27 31 39 40 32 29 27 25 26 26 26 25 25 27 26 21 19 20 22 23 26 29 33 38 46 58 65 67 67 69 70 71 72 72
61 58 62 62 60 60 59 58 59 60 59 53 53 59 56 49 45 44 42 40 38 35 33 31 29 29 29 32 35 41 45 40 34 32 30 29 27 26 26 25 25 23 19 14 10 8 8 8 10 11 11 12 13 14 14 15 15 15 16 17 17 18 24 30 34 41 41 33 29 26 24 25 26 26 24 25 27 24 20 19 20 23 24 25 27 30 35 44 55 63 65 66 68 69 69 72 73
59 58 62 62 61 61 60 59 60 60 58 53 54 55 53 50 45 44 43 40 38 35 33 32 30 29 29 31 34 39 41 35 31 31 30 28 27 26 25 25 25 24 19 13 10 9 8 8 10 10 11 12 13 13 14 14 15 15 16 16 17 19 24 30 36 42 39 31 28 25 23 26 27 26 24 26 27 22 20 20 21 23 24 24 26 28 33 40 49 60 66 67 69 69 68 70 72
56 59 63 63 63 64 63 63 64 64 58 54 55 54 54 54 45 43 43 39 38 37 34 34 33 32 31 32 33 36 36 32 30 31 30 28 27 27 27 26 25 24 19 14 11 9 8 8 10 10 11 11 13 14 14 15 15 15 16 16 17 20 24 30 35 41 37 30 28 24 23 26 27 25 24 26 25 21 20 21 21 24 24 24 25 27 31 36 41 51 60 65 68 69 69 71 74
54 58 62 62 63 64 66 66 67 67 61 56 57 56 56 56 46 43 43 39 38 36 35 36 35 33 32 32 34 35 33 32 32 33 32 31 30 29 28 27 26 23 19 15 12 9 8 8 9 9 10 11 12 13 14 14 15 15 16 16 17 19 23 28 34 39 35 28 28 25 23 26 27 25 25 26 25 21 21 22 22 25 25 25 26 27 29 33 37 41 50 58 64 68 71 74 79
53 59 62 60 61 65 68 69 65 65 66 63 61 58 56 54 50 46 43 42 41 38 37 38 37 36 33 32 34 34 34 34 34 34 33 33 33 33 32 31 30 25 20 17 13 9 8 8 9 9 10 11 11 13 14 14 15 15 16 16 16 18 22 26 32 37 33 28 27 25 23 26 27 25 26 26 24 21 22 23 23 26 27 26 27 27 28 32 36 38 43 51 57 62 69 75 82
53 59 62 58 60 62 64 67 65 64 68 65 64 63 57 55 52 47 44 45 46 41 38 40 40 39 37 34 35 34 34 35 35 37 37 36 37 37 36 36 34 29 24 19 14 11 9 8 9 9 9 11 11 12 13 14 15 15 16 16 16 18 21 24 31 36 31 27 27 25 23 26 27 25 26 26 23 21 23 24 24 26 28 28 29 29 29 32 37 39 41 47 53 58 62 70 79
53 58 62 61 62 62 62 68 67 64 63 62 65 65 61 58 52 46 45 44 44 42 39 39 40 39 39 38 37 36 36 36 37 39 41 41 41 40 40 40 38 34 29 24 17 13 11 10 9 9 9 10 11 12 13 14 15 15 16 17 17 19 22 25 32 36 31 27 28 25 23 26 27 25 25 26 23 21 22 24 24 26 29 31 30 30 31 33 38 41 42 45 51 56 60 63 70
52 56 59 60 64 64 65 71 68 61 60 60 62 63 63 60 51 48 50 45 42 41 38 38 38 37 38 38 38 39 38 38 39 41 43 43 44 43 43 44 42 38 34 29 22 15 12 11 10 10 10 10 11 12 13 13 15 15 16 17 17 19 22 26 34 37 31 27 28 26 24 26 27 25 25 27 24 20 21 23 25 25 29 32 32 32 32 34 37 41 43 45 48 54 59 61 63
52 56 56 56 60 59 60 65 64 59 60 60 59 60 61 57 50 51 53 49 47 46 42 39 36 35 36 38 41 43 42 41 41 42 44 44 45 46 47 48 46 43 39 34 27 18 13 12 11 11 10 10 11 11 12 13 14 15 17 17 18 19 22 27 35 37 31 28 29 27 24 26 28 26 26 28 26 22 20 23 25 25 28 31 34 34 32 33 36 39 42 46 48 51 57 61 62
51 55 54 53 56 58 59 62 62 61 61 61 58 56 58 55 50 50 52 52 53 53 50 45 40 39 40 42 47 48 48 46 43 44 45 46 47 49 50 50 48 46 44 39 31 21 15 12 12 11 11 11 11 11 12 13 14 15 17 17 17 19 22 28 35 35 30 28 29 28 25 26 29 27 27 28 27 23 20 22 25 25 27 29 32 34 33 32 33 34 37 43 48 50 53 57 62
50 51 50 51 55 59 59 57 60 62 58 57 56 55 56 53 48 49 51 52 55 57 56 53 51 50 50 53 54 54 54 51 48 48 49 49 50 52 53 53 52 48 46 43 35 24 16 13 11 12 12 12 11 12 12 13 14 15 17 17 18 19 22 28 34 34 30 29 29 29 26 26 30 29 26 27 27 24 21 21 24 25 26 27 29 32 33 32 31 30 31 35 42 50 53 53 56
48 47 47 50 53 56 55 53 59 62 57 54 55 55 55 51 47 49 50 50 53 58 58 56 56 57 57 59 57 56 57 56 54 53 53 53 53 55 56 55 55 51 47 45 37 26 19 13 12 12 12 12 12 12 12 13 14 15 16 17 17 18 22 28 34 32 29 28 29 30 27 26 30 30 27 27 27 26 22 21 23 24 25 26 27 30 32 34 32 30 30 31 34 41 49 51 51
43 43 43 44 46 49 52 52 54 56 57 59 56 54 52 50 50 48 45 47 52 55 57 57 58 58 58 58 58 59 60 59 59 58 57 57 56 57 58 57 57 53 49 45 35 26 22 16 13 14 13 13 12 12 12 13 14 15 17 17 17 18 21 29 33 30 27 28 28 31 29 26 30 31 29 27 27 26 24 21 22 24 25 25 25 27 30 34 36 34 34 33 33 34 37 42 45
42 43 42 43 46 48 48 50 50 50 57 61 57 54 51 47 51 49 43 46 52 54 57 57 56 56 56 57 58 59 59 59 61 60 60 60 59 60 60 59 59 54 51 46 35 26 24 20 17 15 14 14 13 12 12 12 14 15 16 17 17 18 21 28 32 29 26 27 28 31 31 27 28 31 30 27 27 27 25 22 22 23 25 25 24 25 26 31 37 39 38 38 37 36 33 32 38
42 44 43 44 46 46 45 48 50 48 56 61 57 56 51 44 48 49 43 45 49 52 53 52 52 52 53 54 55 56 57 58 60 61 63 63 61 62 61 60 59 56 53 48 37 28 25 24 22 17 15 15 13 12 12 13 14 15 16 17 17 17 20 28 31 27 26 27 28 30 32 29 28 30 32 29 27 27 25 23 22 23 25 25 24 24 24 26 31 35 38 38 37 37 34 30 32
42 44 45 46 46 47 46 49 51 48 52 56 54 52 49 43 44 47 46 47 48 49 49 47 47 47 48 52 53 54 56 57 60 62 64 66 65 62 62 61 60 58 55 50 42 34 28 26 25 19 15 14 14 13 12 13 14 15 16 17 17 17 21 28 30 26 26 27 28 30 33 31 28 29 32 31 28 27 27 25 23 22 24 25 24 23 23 24 26 29 31 31 29 30 31 29 28